Hourly Data Report for October 05, 2017

All times are specified in Local Standard Time (LST). Add 1 hour to adjust for Daylight Saving Time where and when it is observed.

INGONISH BEACH RCS
NOVA SCOTIA

46°39'46.001" N
60°24'23.000" W
10.00 m
8202502
71027
XIB

Download Data

Hourly Data (October 2017)
Hourly Data Report for October 5, 2017
Temp Definition
°C
Dew Point Temp Definition
°C
Rel Hum Definition
%
Wind Dir Definition
10's deg

Wind Spd Definition
km/h
Visibility Definition
km
Stn Press Definition
kPa
Hmdx Definition


Wind Chill Definition


Weather Definition


TIME
00:00 17.1 9.7 62 22 9   100.94     LegendNANA
01:00 17.3 10.0 62 19 9   100.88     LegendNANA
02:00 17.3 9.9 62 23 10   100.75     LegendNANA
03:00 18.2 8.2 52 25 17   100.69     LegendNANA
04:00 18.7 7.8 49 26 18   100.64     LegendNANA
05:00 17.4 9.5 60 25 17   100.58     LegendNANA
06:00 16.7 10.4 67 23 12   100.56     LegendNANA
07:00 17.0 11.2 69 24 19   100.55     LegendNANA
08:00 17.9 11.8 68 25 19   100.66     LegendNANA
09:00 18.8 12.3 66 26 14   100.72     LegendNANA
10:00 17.7 12.6 72 26 11   100.76     LegendNANA
11:00 17.2 12.2 72 26 7   100.79     LegendNANA
12:00 17.6 10.6 63 30 6   100.82     LegendNANA
13:00 17.9 10.9 64 26 5   100.82     LegendNANA
14:00 16.6 7.9 56 31 6   100.87     LegendNANA
15:00 15.8 8.0 60 26 5   100.93     LegendNANA
16:00 15.3 7.5 59 27 5   100.95     LegendNANA
17:00 13.4 7.4 67 29 3   101.01     LegendNANA
18:00 11.9 7.2 73 26 4   101.02     LegendNANA
19:00 11.2 6.9 75 25 9   101.08     LegendNANA
20:00 10.4 6.3 76 21 4   101.10     LegendNANA
21:00 10.0 6.1 77 26 6   101.12     LegendNANA
22:00 8.1 5.5 84 20 2   101.14     LegendNANA
23:00 6.9 4.8 87 23 2   101.14     LegendNANA

Notes on Data Quality.

Legend

  • E = Estimated
  • M = Missing
  • NA = Not Available
  • ‡ = Partner data that is not subject to review by the National Climate Archives
Date modified: